Overview Statistics Trail Chart Weather Telemetry Raw packets
 

This is the latest recevied weather packets stored in our database for station/object KI5NXU. If no packets are shown the sender has not sent any weather packets the latest 10 day(s).

<< 102 103 104 105 106 107 108 >>
Time Temp. Humidity Pressure Rain* Wind** Luminosity Snow
1787624168 36.11° C 26% 1012.1 hPa 0 mm - 0 W/m² -
1787623868 36.11° C 26% 1012.2 hPa 0 mm - 0 W/m² -
1787623562 36.11° C 26% 1012.1 hPa 0 mm - 0 W/m² -
1787623257 35.56° C 27% 1011.9 hPa 0 mm - 0 W/m² -
1787622956 36.11° C 27% 1012 hPa 0 mm - 0 W/m² -
1787622652 36.11° C 27% 1011.6 hPa 0 mm - 0 W/m² -
1787622350 36.11° C 27% 1011.7 hPa 0 mm - 0 W/m² -
1787622044 36.67° C 27% 1011.7 hPa 0 mm - 0 W/m² -
1787621743 36.67° C 27% 1011.6 hPa 0 mm - 0 W/m² -
1787621438 36.67° C 27% 1011.7 hPa 0 mm - 0 W/m² -
1787621135 37.22° C 26% 1011.3 hPa 0 mm - 0 W/m² -
1787620830 37.78° C 26% 1011.5 hPa 0 mm - 0 W/m² -
1787620525 37.78° C 25% 1011.5 hPa 0 mm - 0 W/m² -
1787620221 38.33° C 25% 1011.3 hPa 0 mm - 1 W/m² -
1787619911 38.33° C 25% 1011.3 hPa 0 mm - 3 W/m² -
1787619611 38.89° C 25% 1011.3 hPa 0 mm - 6 W/m² -
1787619307 38.89° C 25% 1011.2 hPa 0 mm - 10 W/m² -
1787619001 38.89° C 25% 1011.1 hPa 0 mm - 16 W/m² -
1787618695 39.44° C 25% 1011.3 hPa 0 mm - 22 W/m² -
1787618393 40° C 25% 1011.2 hPa 0 mm - 29 W/m² -
1787618089 40° C 24% 1010.9 hPa 0 mm - 35 W/m² -
1787617789 40.56° C 24% 1011 hPa 0 mm - 42 W/m² -
1787617489 40.56° C 24% 1011.1 hPa 0 mm - 46 W/m² -
1787617178 41.11° C 23% 1011.2 hPa 0 mm - 52 W/m² -
1787616873 41.11° C 24% 1011.2 hPa 0 mm - 65 W/m² -

* Rain latest hour (hover to see other rain measurements)
** Current wind speed in m/s (hover to see current wind gust speed)